Location: Newark
(34.1333°N, 7.9667°W)
Time: 07:56:39
(UTC+00:00)

NANOSAT C BR1 - Visible Passes

Search period start: 09 June 2023 00:00
Search period end: 19 June 2023 00:00
Orbit: 573 x 586 km, 98.0° (Epoch: 08 June)

Date Brightness Start Highest point End Pass type
(mag) Time Alt. Az. Time Alt. Az. Time Alt. Az.
09 Jun ? 02:48:59 10° NNE 02:52:47 34° E 02:53:43 30° SE visible
09 Jun ? 04:25:16 10° NNW 04:27:43 16° WNW 04:30:03 11° WSW visible
10 Jun ? 02:53:43 10° NNE 02:57:37 39° E 02:58:37 33° SE visible
10 Jun ? 04:30:25 10° NW 04:32:31 14° WNW 04:34:37 10° W visible
11 Jun ? 02:58:27 10° NNE 03:02:27 45° E 03:03:30 36° SE visible
11 Jun ? 04:35:38 10° NW 04:37:17 12° WNW 04:38:54 10° W visible
12 Jun ? 03:03:12 10° NNE 03:07:16 52° E 03:08:22 39° SSE visible
12 Jun ? 04:41:07 10° NW 04:42:02 11° WNW 04:42:55 10° WNW visible
13 Jun ? 03:07:57 10° NNE 03:12:03 60° E 03:13:14 41° SSE visible
14 Jun ? 03:12:42 10° NNE 03:16:51 69° ESE 03:18:04 43° S visible
15 Jun ? 03:17:26 10° NNE 03:21:37 80° ESE 03:22:54 43° S visible
16 Jun ? 03:22:11 10° NNE 03:26:21 89° WNW 03:27:42 42° SSW visible
17 Jun ? 03:26:56 10° N 03:31:05 78° WNW 03:32:30 40° SSW visible
18 Jun ? 03:31:41 10° N 03:35:48 68° WNW 03:37:16 38° SSW visible
